Regional Weather Roundup
Issued by NWS

Home | Current Version | Previous Version | Text Only | Print | Product List | Glossary Off
Versions: 1 2 3 4 5 6 7 8 9 10 11 12 13 14 15 16 17 18 19 20 21 22 23 24 25 26 27

000
ASUS45 KBOU 290007
RWRCO

WEATHER ROUNDUP FOR COLORADO
NATIONAL WEATHER SERVICE DENVER/BOULDER CO
600 PM MDT THU APR 28 2016

NOTE: "FAIR" INDICATES FEW OR NO CLOUDS BELOW 12000 FEET WITH NO
SIGNIFICANT WEATHER AND/OR OBSTRUCTIONS TO VISIBILITY.

COZ001>005-013-030-031-290100-
...NORTHWEST COLORADO...

CITY           SKY/WX    TMP DP  RH WIND       PRES   REMARKS
CRAIG          FAIR      40  35  83 E3        29.88R
HAYDEN         CLOUDY    36  30  80 NE8       29.87S
MEEKER         PTSUNNY   44  35  70 SW3       29.85R
MOUNT WERNER   NOT AVBL
STEAMBOAT SPGS CLOUDY    36  32  84 E13       29.86F
WALDEN         CLOUDY    34  30  86 W12G21    29.93R VSB 1/2 WCI  25
$$

COZ006>008-011-290100-
...WEST CENTRAL VALLEYS...

CITY           SKY/WX    TMP DP  RH WIND       PRES   REMARKS
GRAND JUNCTION CLOUDY    53  38  56 N12       29.76F
MONTROSE       PTSUNNY   53  33  46 N14       29.77R
EAGLE          PTSUNNY   50  34  53 W7        29.81R
RIFLE          PTSUNNY   53  36  52 NW3       29.79R
DELTA          NOT AVBL
NUCLA          NOT AVBL
$$

COZ017>023-064>068-290100-
...SOUTHWEST COLORADO...

CITY           SKY/WX    TMP DP  RH WIND       PRES   REMARKS
DURANGO        FAIR      57  19  22 W15       29.73R
CORTEZ         RAIN      44  36  73 NE6       29.81R
PAGOSA SPRINGS CLOUDY    53  13  20 E3        29.78S
TELLURIDE      FAIR      41  27  59 CALM      29.86S
WOLF CREEK PAS NOT AVBL
$$

COZ009-010-012-014-032>034-037-058>063-290100-
...CENTRAL COLORADO...

CITY           SKY/WX    TMP DP  RH WIND       PRES   REMARKS
ASPEN          FAIR      42  32  67 W8G18     29.83R
BUENA VISTA    CLOUDY    35  29  80 S8        29.94R WCI  29
COPPER MTN     NOT AVBL
BERTHOUD PASS  HAZE      19   9  63 SE14      29.97R VSB<1/4 WCI   6
COTTONWOOD PAS CLOUDY    32  30  93 E7        29.95R WCI  26
GUNNISON       FAIR      48  19  32 S14G20    29.85R
KREMMLING      DRIZZLE   46  32  57 SE6       29.86R
LEADVILLE      CLOUDY    29  29 100 S16       29.89R WCI  17
SALIDA         PTSUNNY   38  31  77 SE12G18   30.00R
SUNLIGHT       CLOUDY    32  32 100 W5        29.94R FOG     WCI  27
WILKERSON PASS FOG       27  25  93 S8        30.00S VSB 1/2 WCI  18
$$

COZ069>075-290100-
...SAN LUIS VALLEY/SANGRE DE CRISTO MOUNTAINS...

CITY           SKY/WX    TMP DP  RH WIND       PRES   REMARKS
ALAMOSA        CLOUDY    44  34  67 E25G32    29.82R
LA VETA PASS   SNOW      27  25  93 MISG      29.99R VSB 1/2
SAGUACHE       PTSUNNY   46  30  53 SE21G29   29.85R
$$

COZ035-036-038>040-290100-
...NORTHERN COLORADO FRONT RANGE...

CITY           SKY/WX    TMP DP  RH WIND       PRES   REMARKS
DENVER INTL AP CLOUDY    39  31  72 E14       29.98R
DMNS CITY PARK   N/A     39  33  80 E10       29.98S
AURORA         CLOUDY    38  35  90 E10       29.98R
FRONT RANGE AP CLOUDY    37  34  87 E16G24    29.99S
ERIE MUNI ARPT CLOUDY    39  35  86 E8        30.00R
BOULDER MUN AP CLOUDY    37  34  87 E3        29.99R
CENTENNIAL     CLOUDY    39  33  79 W6        29.97R
BROOMFIELD     CLOUDY    37  36  93 E3        29.99R
FORT COLLINS   CLOUDY    39  34  81 SE9       30.00S
LONGMONT       CLOUDY    42  34  73 SE7       30.02R HAZE
$$

COZ041-046-047-076>085-087-088-290100-
...PIKES PEAK/PALMER DIVIDE AND SOUTHERN FOOTHILLS...

CITY           SKY/WX    TMP DP  RH WIND       PRES   REMARKS
COLO. SPRINGS  FLURRIES  38  32  79 SE9       29.99R
A. F. ACADEMY  CLOUDY    37  30  75 S8        29.97R
SCHRIEVER AFB  NOT AVBL
ELLICOTT       NOT AVBL
FALCON         CLOUDY    36  31  84 SE6       29.99R
FORT CARSON    FLURRIES  36  34  91 SW5       29.97S
LIMON          CLOUDY    38  34  85 NE14      29.99S
MONUMENT HILL  CLOUDY    34  30  86 S10       29.99R WCI  26
TRINIDAD       LGT RAIN  46  37  71 NW16      29.91R
$$

COZ042>045-048>051-090-091-290100-
...NORTHEAST COLORADO...

CITY           SKY/WX    TMP DP  RH WIND       PRES   REMARKS
GREELEY ARPT   CLOUDY    39  34  81 SE10      30.02R
AKRON          CLOUDY    39  33  79 SE5       30.03R
BURLINGTON     CLOUDY    48  32  53 E7        30.01R
WRAY           NOT AVBL
STERLING       CLOUDY    41  34  75 E6        30.02F
HOLYOKE        NOT AVBL
FORT MORGAN    CLOUDY    40  34  80 SE6       30.03R
$$

COZ086-089-092>099-290100-
...SOUTHEAST COLORADO...

CITY           SKY/WX    TMP DP  RH WIND       PRES   REMARKS
PUEBLO         LGT RAIN  48  32  53 CALM      29.96R
LA JUNTA       FAIR      52  32  46 E18       29.93S
LAMAR          CLOUDY    53  32  44 E13       29.94S
SPRINGFIELD      N/A     53  36  52 NE16      29.91R
$$




USA.gov is the U.S. government's official web portal to all federal, state and local government web resources and services.